Weather in Byshkin

Ukraine / Sumi District     50°37′38″N   34°37′05″E
temp.,
°C
wind,
m/s
gust,
m/s
humid.,
%
clouds,
%
prec.,
mm/h
press.,
hPa
HPBL,
m
23 october, sat
sat2300:00+11wsw41152100 0.0 1012320
03:00+8sw486012 0.0 1013135
06:00+9ssw376218 0.0 1012162
09:00+9wsw38674 0.1 1012255
12:00+12w8114111 0.0 10131334
15:00+12w8124676 0.0 10142039
18:00+8wnw510574 0.0 1016393
21:00+5wnw311675 0.0 1018435
24 october, sun
sun2400:00+4w39755 0.0 1020232
03:00+3w3977100 0.0 1020207
06:00+5wsw3967100 0.0 1020306
09:00+6w4870100 0.0 1021384
12:00+7wnw6869100 0.0 1022675
15:00+6nw7867100 0.1 1022885
18:00+5nw6965100 0.0 1024931
21:00+4nnw511715 0.0 1026666
25 october, mon
mon2500:00+2nnw410795 0.0 1028408
03:000nnw410835 0.0 1029307
06:00−1nnw37895 0.0 1031178
09:00+1n34785 0.0 1033202
12:00+5n34545 0.0 1033776
15:00+6nnw22455 0.0 10321011
18:00+3nnw11555 0.0 103310
21:00+2wsw11612 0.0 103310
26 october, tue
tue2600:00+1ssw22650 0.0 103414
03:000ssw22690 0.0 103332
06:00−1ssw33715 0.0 103347
09:00+1ssw36625 0.0 1033162
12:00+7ssw463980 0.0 1032610
15:00+9sw57325 0.0 1030847
18:00+5ssw34415 0.0 102952
21:00+3ssw37452 0.0 1029118
27 october, wed
wed2700:00+2ssw38461 0.0 1029134
03:00+1ssw39484 0.0 1028136
06:000ssw38530 0.0 1027132
09:00+2ssw49530 0.0 1027220
12:00+8sw69400 0.0 1025663
15:00+10wsw684098 0.0 1023955
18:00+6wsw38601 0.0 1023144
21:00+6w3873100 0.2 1023217